DateTimeUTC,F1_A11,F1_S11,BsB_S11,BsG_S11,BsR_S11,BbsB_S11,BbsG_S11,BbsR_S11,BaB_A11,BaG_A11,BaR_A11,Tu_S11,T_S11,Uu_S11,U_S11,P_S11,T1_A11
2021-04-02T09:00:00Z,00000200,20000000,,,,,,,0610.73,-000.50,-000.57,16.6,23.6,02.0,01.3,0652.2,30.9
2021-04-02T09:01:00Z,00000200,20000000,,,,,,,-001.69,0000.01,0000.30,16.7,23.5,02.0,01.3,0652.2,30.9
2021-04-02T09:02:00Z,00000200,20000000,,,,,,,0001.62,-000.28,-000.40,16.7,23.5,01.9,01.2,0652.2,30.9
2021-04-02T09:03:00Z,00000200,60000000,,,,,,,0000.10,0000.20,0000.33,16.7,23.6,01.7,01.1,0652.2,30.9
2021-04-02T09:04:00Z,00000200,40000000,0000.62,-000.00,-000.04,0000.08,0000.10,-000.18,0000.55,0000.25,0000.31,16.8,23.4,01.9,01.3,0653.1,30.9
2021-04-02T09:05:00Z,00000200,01000000,0000.28,0000.05,-000.01,0000.26,0000.16,0000.07,-000.36,-000.07,-000.79,16.8,23.4,02.1,01.4,0653.1,30.9
2021-04-02T09:06:00Z,00000200,01000000,-000.49,0000.06,-000.02,-000.09,0000.27,0000.01,-000.09,0000.13,0000.81,16.8,23.4,02.0,01.3,0653.1,30.9
2021-04-02T09:07:00Z,00000200,00000000,0000.77,-000.02,-000.27,-000.51,-000.00,0000.21,0000.49,0000.31,-000.06,16.8,23.4,02.1,01.4,0653.1,30.9
2021-04-02T09:08:00Z,00000200,00080000,0000.28,0000.26,-000.24,-000.35,0000.07,-000.11,0000.38,0000.03,0000.44,16.8,23.4,02.2,01.5,0653.1,30.9
2021-04-02T09:09:00Z,00000200,00000000,0000.67,0000.09,0000.05,0000.02,-000.05,0000.13,0001.10,0000.90,0000.55,16.8,23.3,02.4,01.6,0653.0,30.9
2021-04-02T09:10:00Z,00000200,00000000,-000.44,-000.13,0000.12,0000.00,0000.04,0000.30,-000.28,0000.13,-000.13,16.8,23.4,02.3,01.6,0652.9,30.9
2021-04-02T09:11:00Z,00000200,00000000,0000.04,0000.03,0000.19,-000.26,0000.05,0000.16,-000.12,-000.13,0000.05,16.9,23.4,02.4,01.6,0653.1,30.9
2021-04-02T09:12:00Z,00000200,00000000,0000.06,0000.11,0000.37,-000.08,0000.20,0000.02,0001.07,0000.87,0001.03,16.9,23.4,02.6,01.7,0653.0,30.9
2021-04-02T09:13:00Z,00000200,00000000,0000.80,-000.00,0000.22,0000.21,0000.19,0000.08,-000.32,0000.05,-000.26,16.9,23.4,02.6,01.7,0653.0,30.9
2021-04-02T09:14:00Z,00000200,00000000,-000.43,0000.33,0000.14,-000.42,0000.07,0000.24,0000.17,0000.24,-000.24,16.9,23.4,02.7,01.8,0653.0,30.9
2021-04-02T09:15:00Z,00000200,00000000,0000.89,-000.18,0000.07,0000.01,0000.01,0000.31,-000.25,-000.39,-000.00,16.9,23.4,02.7,01.8,0653.1,30.9
2021-04-02T09:16:00Z,00000200,00080000,0000.68,-000.23,-000.29,0000.29,-000.12,-000.23,-000.31,-000.32,-000.37,16.9,23.4,02.6,01.8,0653.1,30.9
2021-04-02T09:17:00Z,00000200,00000000,-000.29,0000.11,0000.18,0000.00,-000.01,-000.05,0000.62,0000.50,0000.53,16.9,23.4,02.7,01.8,0653.2,30.9
2021-04-02T09:18:00Z,00000200,00000000,-000.46,0000.03,0000.25,-000.15,0000.26,0000.01,-000.18,-000.10,-000.08,16.9,23.4,02.7,01.8,0653.2,30.9
2021-04-02T09:19:00Z,00000200,00000000,0000.27,0000.26,-000.20,0000.12,0000.31,0000.19,0000.90,0000.91,0000.52,16.8,23.4,02.6,01.7,0653.1,30.9
2021-04-02T09:20:00Z,00000200,00000000,0000.10,0000.12,0000.11,0000.07,0000.22,-000.01,-000.66,-000.80,-000.20,16.8,23.4,02.8,01.8,0653.1,30.9
2021-04-02T09:21:00Z,00000200,00000000,0000.51,-000.09,-000.00,-000.02,0000.07,-000.13,0000.00,0000.08,-000.10,16.8,23.4,02.6,01.7,0653.2,30.9
2021-04-02T09:22:00Z,00000200,00000000,0000.61,0000.10,0000.13,-000.30,0000.09,0000.43,-000.03,-000.04,-000.43,16.8,23.4,02.6,01.7,0653.2,30.9
2021-04-02T09:23:00Z,00000200,00000000,0000.12,0000.17,-000.04,0000.14,0000.04,0000.16,0000.18,-000.21,0000.45,16.8,23.3,02.5,01.7,0653.2,30.9
2021-04-02T09:24:00Z,00000200,00000000,0000.55,0000.18,0000.18,-000.38,0000.18,-000.09,-056.37,0000.76,0000.37,16.8,23.3,02.5,01.7,0653.2,30.9
2021-04-02T09:25:00Z,00000200,00000000,-000.05,0000.13,-000.14,-000.01,0000.23,0000.06,0056.54,0000.03,-000.03,16.8,23.3,02.6,01.7,0653.2,30.9
2021-04-02T09:26:00Z,00000200,00000000,0000.31,-000.02,0000.28,0000.27,0000.44,0000.19,0000.13,-000.44,0000.13,16.9,23.4,02.6,01.8,0653.2,30.9
2021-04-02T09:27:00Z,00000200,00000000,-000.06,0000.10,-000.00,0000.52,0000.39,0000.02,0000.70,0000.42,-000.09,16.9,23.3,02.5,01.7,0653.1,30.9
2021-04-02T09:28:00Z,00000200,00000000,0000.11,0000.27,0000.25,0000.55,0000.45,0000.07,-000.58,-000.34,-000.18,16.9,23.3,02.6,01.7,0653.2,30.9
2021-04-02T09:29:00Z,00000200,00000000,0000.90,0000.37,0000.12,0000.14,0000.29,0000.33,0000.27,0000.26,0000.26,16.9,23.3,02.5,01.7,0653.1,30.9
2021-04-02T09:30:00Z,00000200,00000000,-000.07,0000.25,0000.10,-000.06,0000.17,0000.03,-000.27,-000.17,0000.10,16.9,23.4,02.5,01.7,0653.1,30.9
2021-04-02T09:31:00Z,00000200,00000000,-000.37,-000.01,0000.11,-000.06,0000.12,0000.17,-050.45,-000.24,-000.12,16.8,23.3,02.6,01.7,0653.1,30.9
2021-04-02T09:32:00Z,00000200,00000000,0001.05,0000.57,0000.54,0000.12,-000.08,-000.04,0050.41,0000.39,-000.18,16.9,23.3,02.5,01.6,0653.0,30.9
2021-04-02T09:33:00Z,00000200,00000000,0000.66,0000.42,0000.15,-000.15,0000.33,-000.01,-000.30,-000.26,-000.22,16.9,23.3,02.4,01.6,0653.0,30.9
2021-04-02T09:34:00Z,00000200,00000000,0000.10,0000.06,0000.25,0000.23,-000.14,0000.11,0000.25,0000.06,0000.18,16.8,23.3,02.4,01.6,0652.9,30.9
2021-04-02T09:35:00Z,00000200,00000000,0000.22,0000.02,-000.04,0000.14,0000.07,0000.54,-000.00,-000.10,-000.19,16.8,23.3,02.5,01.7,0653.0,30.9
2021-04-02T09:36:00Z,00000200,00000000,0000.36,0000.27,0000.04,-000.04,0000.04,-000.18,-000.05,-000.08,0000.18,16.8,23.3,02.5,01.7,0653.0,30.9
2021-04-02T09:37:00Z,00000200,00000000,-000.08,-000.26,0000.15,-000.07,0000.09,0000.15,0000.07,0000.17,0000.10,16.8,23.3,02.4,01.6,0652.9,30.9
2021-04-02T09:38:00Z,00000200,00000000,0000.02,0000.14,0000.15,0000.05,0000.13,-000.04,0000.39,0000.03,0000.23,16.7,23.3,02.4,01.6,0652.9,30.9
2021-04-02T09:39:00Z,00000200,00000000,0000.12,-000.02,0000.01,-000.03,0000.09,0000.23,0000.19,0000.07,0000.46,16.8,23.3,02.5,01.7,0652.9,30.9
2021-04-02T09:40:00Z,00000200,00000000,0000.13,0000.09,0000.33,-000.14,0000.04,0000.08,-000.48,-000.00,-000.11,16.8,23.3,02.5,01.6,0652.8,30.9
2021-04-02T09:41:00Z,00000200,00000000,0000.04,-000.05,0000.06,-000.19,0000.04,0000.10,-000.26,0000.06,-000.52,16.8,23.3,02.3,01.6,0652.9,30.9
2021-04-02T09:42:00Z,00000200,00000000,0000.22,0000.07,0000.28,0000.04,0000.01,0000.13,0000.10,-000.14,0000.25,16.9,23.3,02.3,01.6,0652.7,30.9
2021-04-02T09:43:00Z,00000200,00000000,-000.47,0000.02,-000.19,0000.11,0000.24,0000.09,0000.15,0000.15,-000.11,16.9,23.3,02.2,01.5,0652.8,30.9
2021-04-02T09:44:00Z,00000200,00000000,-000.00,0000.03,-000.13,0000.10,0000.09,0000.05,0000.35,-000.07,0000.04,16.9,23.3,02.3,01.5,0652.7,30.9
2021-04-02T09:45:00Z,00000200,000C0000,-011.26,-005.93,-004.21,-007.27,-004.15,-003.96,-000.50,0000.08,0000.15,16.9,23.3,02.3,01.5,0652.6,30.9
2021-04-02T09:46:00Z,00000200,00000000,-000.25,0000.04,-000.07,0000.21,-000.00,0000.34,0001.08,0000.82,0000.63,16.9,23.3,02.4,01.6,0652.6,30.9
2021-04-02T09:47:00Z,00000200,00000000,-000.08,0000.03,-000.03,0000.11,0000.05,-000.05,-000.86,-000.79,-000.66,16.9,23.3,02.4,01.6,0652.6,30.9
2021-04-02T09:48:00Z,00000200,00000000,0000.33,-000.05,-000.05,0000.20,0000.07,0000.17,0001.11,0000.81,0000.69,16.8,23.3,02.4,01.6,0652.7,30.9
2021-04-02T09:49:00Z,00000200,00000000,0000.81,0000.33,0000.22,0000.31,0000.10,0000.33,0001.17,0000.78,0000.67,16.8,23.3,02.7,01.8,0652.5,30.9
2021-04-02T09:50:00Z,00000200,00000000,-000.17,0000.02,0000.10,0000.10,0000.20,0000.09,0000.00,0000.82,0000.29,16.8,23.3,03.1,02.1,0652.6,30.9
2021-04-02T09:51:00Z,00000200,00000000,0000.37,0000.09,-000.19,-000.19,0000.09,-000.15,0000.87,-000.19,0000.22,16.8,23.3,03.0,02.0,0652.7,30.9
2021-04-02T09:52:00Z,00000200,00000000,0000.85,0000.12,0000.37,-000.14,0000.27,0000.32,0000.50,0000.83,0000.65,16.7,23.3,03.1,02.1,0652.7,30.9
2021-04-02T09:53:00Z,00000200,00000000,0000.21,0000.03,0000.31,0000.24,0000.28,0000.35,-001.19,-000.57,-000.34,16.7,23.2,03.2,02.1,0652.8,30.9
2021-04-02T09:54:00Z,00000200,00000000,0000.47,0000.24,-000.19,0000.16,0000.23,0000.03,0000.44,0000.26,-000.04,16.7,23.2,02.9,01.9,0652.7,30.9
2021-04-02T09:55:00Z,00000200,00000000,0000.06,0000.08,0000.11,-000.12,0000.15,0000.15,-070.67,-000.30,-000.03,16.7,23.2,02.9,01.9,0652.7,30.9
2021-04-02T09:56:00Z,00000200,00000000,0000.52,0000.21,0000.12,-000.09,0000.16,0000.22,0070.44,0000.27,0000.14,16.8,23.3,02.7,01.8,0652.6,30.9
2021-04-02T09:57:00Z,00000200,40080000,,,,,,,-000.05,0000.02,-000.15,16.9,23.3,02.8,01.9,0652.7,30.9
2021-04-02T09:58:00Z,00000200,60000000,,,,,,,0000.48,-000.15,0000.32,16.7,23.5,02.6,01.7,0651.3,30.9
2021-04-02T09:59:00Z,00000200,20000000,,,,,,,-000.62,-000.39,-000.71,16.7,23.6,02.6,01.7,0651.4,30.9
